Location: Clyde
(45.1830°S, 169.3170°E)
Time: 07:45:17
(UTC+12:00)

Cosmos 1553 Rocket - Pass Details

Date: 14 May 2021
Orbit: 942 x 1007 km, 82.9° (Epoch: 20 June)

Event Time Altitude Azimuth Distance (km) Brightness Sun altitude
Rises 18:42:25 0° 185° (S) 3,665 6.9 -13.7°
Reaches altitude 10° 18:45:03 10° 179° (S) 2,706 6.2 -14.2°
Maximum altitude 18:51:01 49° 104° (ESE) 1,218 4.1 -15.2°
Drops below altitude 10° 18:56:53 10° 29° (NNE) 2,666 6.1 -16.2°
Sets 18:59:27 0° 24° (NNE) 3,605 6.8 -16.7°
